Weather History for MYNN - January, 2014

Change the Weather History Date:

Thursday, January 16, 2014

  Actual Average Record
Temperature  
Mean Temperature 68 °F -  
Max Temperature 75 °F 78 °F 82 °F (2007)
Min Temperature 62 °F 62 °F 57 °F (2004)
Cooling Degree Days 4    
Growing Degree Days 18 (Base 50)    
Moisture  
Dew Point 59 °F    
Average Humidity 72    
Maximum Humidity 100    
Minimum Humidity 56    
Precipitation  
Precipitation 0.16 in 0.06 in - ()
Sea Level Pressure  
Sea Level Pressure 30.02 in    
Wind  
Wind Speed 8 mph ()    
Max Wind Speed 14 mph    
Max Gust Speed -    
Visibility 6.7 miles    
Events Rain    
Averages and records for this station are not official NWS values.
T = Trace of Precipitation, MM = Missing Value Source: Averaged Metar Reports

Daily Weather History Graph

Daily Weather History Graph

Search for Another Location

Airport or City:

Trip Planner

Search our weather history database for the weather conditions in past years. The results will help you decide how hot, cold, wet, or windy it might be!

Date:

Astronomy

Jan. 16, 2014 Rise Set
Actual Time 6:56 AM EST 5:42 PM EST
Civil Twilight 6:32 AM EST 6:07 PM EST
Nautical Twilight 6:04 AM EST 6:35 PM EST
Astronomical Twilight 5:36 AM EST 7:02 PM EST
Moon 6:22 PM EST (1/16) 6:57 AM EST (1/16)
Length of Visible Light 11h 35m
Length of Day
10h 46m
Full, 100% of the Moon is Illuminated
Jan 16
Full
Jan 24
Last Quarter
Jan 30
New
Feb 6
First Quarter
Feb 14
Full

Hourly Weather History & Observations

Time (EST) Temp. Dew Point Humidity Pressure Visibility Wind Dir Wind Speed Gust Speed Precip Events Conditions
12:00 AM 73.4 °F 62.6 °F 69% 29.95 in 6.2 mi WNW 11.5 mph - N/A   Mostly Cloudy
1:00 AM 72 °F 71 °F 95% 30.01 in 8 mi NNW 10.4 mph - -   Mostly Cloudy
1:00 AM 71.6 °F 71.6 °F 100% 30.01 in 6.2 mi NNW 10.4 mph - N/A   Mostly Cloudy
2:00 AM 68.0 °F 55.4 °F 64% 30.01 in 6.2 mi West 11.5 mph - N/A Rain Light Rain Showers
3:00 AM 62.6 °F 57.2 °F 82% 29.98 in 6.2 mi Calm Calm - N/A   Mostly Cloudy
4:00 AM 68 °F 68 °F 100% 29.97 in 8 mi ESE 4.6 mph - -   Overcast
4:00 AM 68.0 °F 68.0 °F 100% 29.97 in 6.2 mi ESE 4.6 mph - N/A Rain Light Rain Showers
5:00 AM 64.4 °F 59.0 °F 83% 29.98 in 6.2 mi Variable 1.2 mph - N/A Rain Light Rain
6:00 AM 64.4 °F 59.0 °F 83% 29.96 in - Calm Calm - N/A Rain Light Rain
7:00 AM 66 °F 60 °F 74% 29.98 in 8 mi West 9.2 mph - - Rain Light Rain
7:00 AM 66.2 °F 59.0 °F 78% 29.98 in - West 9.2 mph - N/A   Overcast
8:00 AM 69.8 °F 57.2 °F 64% 30.00 in 6.2 mi NW 3.5 mph - N/A Rain Light Rain
9:00 AM 69.8 °F 53.6 °F 56% 30.03 in 6.2 mi NW 10.4 mph - N/A   Mostly Cloudy
10:00 AM 70 °F 58 °F 56% 30.06 in 8 mi WNW 6.9 mph - -   Partly Cloudy
10:00 AM 69.8 °F 57.2 °F 64% 30.05 in 6.2 mi WNW 6.9 mph - N/A   Mostly Cloudy
11:00 AM 69.8 °F 55.4 °F 60% 30.03 in 6.2 mi WNW 8.1 mph - N/A   Mostly Cloudy
12:00 PM 71.6 °F 55.4 °F 57% 29.99 in 6.2 mi WNW 9.2 mph - N/A   Mostly Cloudy
1:00 PM 72 °F 63 °F 65% 29.97 in 8 mi NNW 9.2 mph - -   Mostly Cloudy
1:00 PM 71.6 °F 62.6 °F 73% 29.97 in 6.2 mi NNW 9.2 mph - N/A   Mostly Cloudy
2:00 PM 71.6 °F 57.2 °F 60% 29.98 in 6.2 mi NNW 10.4 mph - N/A   Mostly Cloudy
3:00 PM 69.8 °F 57.2 °F 64% 30.00 in 6.2 mi NNW 13.8 mph - N/A   Mostly Cloudy
4:00 PM 69 °F 60 °F 65% 30.02 in 8 mi WNW 13.8 mph - -   Mostly Cloudy
4:00 PM 69.8 °F 59.0 °F 68% 30.01 in 6.2 mi WNW 13.8 mph - N/A   Mostly Cloudy
5:00 PM 68.0 °F 55.4 °F 64% 30.04 in 6.2 mi NW 11.5 mph - N/A   Mostly Cloudy
5:35 PM - - N/A% - - North - - N/A   Unknown
6:00 PM 66.2 °F 55.4 °F 68% 30.06 in 6.2 mi NW 13.8 mph - N/A   Mostly Cloudy
7:00 PM 67 °F 58 °F 65% 30.07 in 8 mi NW 13.8 mph - -   Mostly Cloudy
7:00 PM 66.2 °F 57.2 °F 73% 30.07 in 6.2 mi NW 13.8 mph - N/A   Mostly Cloudy
8:00 PM 66.2 °F 53.6 °F 64% 30.09 in 6.2 mi WNW 9.2 mph - N/A   Mostly Cloudy
9:00 PM 64.4 °F 53.6 °F 68% 30.10 in 6.2 mi NW 6.9 mph - N/A   Scattered Clouds
10:00 PM 67 °F 62 °F 77% 30.14 in 8 mi 2.3 mph - -   Mostly Cloudy
10:00 PM 64.4 °F 53.6 °F 68% 30.10 in 6.2 mi WNW 9.2 mph - N/A   Partly Cloudy
11:00 PM 64.4 °F 51.8 °F 64% 30.09 in 6.2 mi North 5.8 mph - N/A   Partly Cloudy